Jackson, MS

3:33 AM CST on February 20, 2017 (GMT -0600)
Hawkins

Weather History for KHKS - May, 2013

Change the Weather History Date:

Sunday, May 12, 2013

  Actual Average (KJAN) Record (KJAN)
Temperature  
Mean Temperature 64 °F -  
Max Temperature 73 °F 83 °F 96 °F (1902)
Min Temperature 54 °F 60 °F 42 °F (1989)
Degree Days  
Heating Degree Days 1    
Growing Degree Days 14 (Base 50)    
Moisture  
Dew Point 49 °F    
Average Humidity 63    
Maximum Humidity 97    
Minimum Humidity 35    
Precipitation  
Precipitation 0.01 in - - ()
Sea Level Pressure  
Sea Level Pressure 30.13 in    
Wind  
Wind Speed 4 mph (North)    
Max Wind Speed 10 mph    
Max Gust Speed 22 mph    
Visibility 10 miles    
Events      
Averages and records for this station are not official NWS values.
T = Trace of Precipitation, MM = Missing Value Source: NWS Daily Summary

Daily Weather History Graph

Daily Weather History Graph

Search for Another Location

Airport or City:

Trip Planner

Search our weather history database for the weather conditions in past years. The results will help you decide how hot, cold, wet, or windy it might be!

Date:

Astronomy

May. 12, 2013 Rise Set
Actual Time 6:04 AM CDT 7:50 PM CDT
Civil Twilight 5:38 AM CDT 8:16 PM CDT
Nautical Twilight 5:05 AM CDT 8:49 PM CDT
Astronomical Twilight 4:31 AM CDT 9:23 PM CDT
Moon 8:02 AM CDT (5/12) 10:15 PM CDT (5/12)
Length of Visible Light 14h 38m
Length of Day
13h 45m
Waxing Crescent, 7% of the Moon is Illuminated
May 12
Waxing Crescent
May 17
First Quarter
May 24
Full
May 31
Last Quarter
Jun 8
New

Hourly Weather History & Observations

Time (CDT) Temp. Dew Point Humidity Pressure Visibility Wind Dir Wind Speed Gust Speed Precip Events Conditions
12:53 AM 59.0 °F 57.0 °F 93% 30.07 in 10.0 mi Calm Calm - N/A   Clear
1:53 AM 57.9 °F 55.9 °F 93% 30.07 in 6.0 mi Calm Calm - N/A   Clear
2:53 AM 55.9 °F 55.0 °F 97% 30.06 in 6.0 mi Calm Calm - N/A   Clear
3:53 AM 55.9 °F 54.0 °F 93% 30.06 in 8.0 mi Calm Calm - N/A   Clear
4:53 AM 57.0 °F 54.0 °F 89% 30.06 in 10.0 mi Calm Calm - N/A   Clear
5:53 AM 55.9 °F 54.0 °F 93% 30.08 in 10.0 mi NW 4.6 mph - 0.01 in   Clear
6:53 AM 55.9 °F 54.0 °F 93% 30.10 in 10.0 mi NW 3.5 mph - N/A   Clear
7:53 AM 60.1 °F 53.1 °F 78% 30.13 in 10.0 mi NNE 10.4 mph 19.6 mph N/A   Clear
8:53 AM 63.0 °F 51.1 °F 65% 30.17 in 10.0 mi NE 10.4 mph 21.9 mph N/A   Clear
9:53 AM 64.9 °F 50.0 °F 58% 30.17 in 10.0 mi NE 9.2 mph 16.1 mph N/A   Clear
10:53 AM 68.0 °F 48.9 °F 50% 30.17 in 10.0 mi North 10.4 mph 16.1 mph N/A   Clear
11:53 AM 69.1 °F 46.9 °F 45% 30.17 in 10.0 mi NNE 5.8 mph - N/A   Clear
12:53 PM 71.1 °F 46.9 °F 42% 30.17 in 10.0 mi North 8.1 mph - N/A   Clear
1:53 PM 71.1 °F 48.0 °F 44% 30.17 in 10.0 mi NW 10.4 mph - N/A   Clear
2:53 PM 72.0 °F 46.9 °F 41% 30.17 in 10.0 mi North 6.9 mph - N/A   Clear
3:53 PM 73.9 °F 46.0 °F 37% 30.15 in 10.0 mi NW 9.2 mph 16.1 mph N/A   Clear
4:53 PM 70.0 °F 43.0 °F 38% 30.14 in 10.0 mi NNW 8.1 mph 16.1 mph N/A   Clear
5:53 PM 70.0 °F 41.0 °F 35% 30.13 in 10.0 mi NNW 8.1 mph - N/A   Clear
6:53 PM 68.0 °F 42.1 °F 39% 30.13 in 10.0 mi NNW 5.8 mph - N/A   Clear
7:53 PM 64.0 °F 42.1 °F 45% 30.14 in 10.0 mi North 3.5 mph - N/A   Clear
8:53 PM 61.0 °F 43.0 °F 52% 30.15 in 10.0 mi NNW 3.5 mph - N/A   Clear
9:53 PM 57.9 °F 44.1 °F 60% 30.17 in 10.0 mi Calm Calm - N/A   Clear
10:53 PM 55.9 °F 45.0 °F 67% 30.18 in 10.0 mi NW 3.5 mph - N/A   Clear
11:53 PM 54.0 °F 45.0 °F 72% 30.19 in 10.0 mi Calm Calm - N/A   Clear